Regional Weather Roundup
Issued by NWS Albany, NY

Home | Current Version | Previous Version | Graphics & Text | Print | Product List | Glossary On
Versions: 1 2 3 4 5 6 7 8 9 10 11 12 13 14 15 16 17 18 19 20 21 22 23 24 25 26 27 28 29 30 31 32 33 34 35 36 37 38 39 40 41 42 43 44 45 46 47 48 49 50
000
ASUS41 KALY 261410
RWRALY

NEW YORK STATE HOURLY WEATHER ROUNDUP
NATIONAL WEATHER SERVICE ALBANY NY
1000 AM EDT SUN APR 26 2015

NOTE: "FAIR" INDICATES FEW OR NO CLOUDS BELOW 12,000 FEET WITH NO
SIGNIFICANT WEATHER AND/OR NO OBSTRUCTIONS TO VISIBILITY.

NYZ032-033-038>043-046>054-057>066-NYZ062>081-261500-
EAST


CITY           SKY/WX    TMP DP  RH WIND       PRES   REMARKS
ALBANY         CLOUDY    50  31  48 NW7       29.74S
GLENS FALLS    CLOUDY    51  31  46 VRB5      29.71F
POUGHKEEPSIE   PTSUNNY   52  32  46 N5        29.71F
NEWBURGH       SUNNY     48  34  57 CALM      29.72F
MONTGOMERY     SUNNY     52  32  46 NE8       29.71F
WHITE PLAINS   SUNNY     52  29  41 VRB5      29.70S
ISLIP          MOSUNNY   55  31  39 NE10      29.68F
NEW YORK CITY  MOSUNNY   51  31  46 NE9       29.71S
CENTRAL PARK   SUNNY     54  28  36 E9        29.73S
$$

NYZ005>009-017-018-044>046-055-056-261500-
CENTRAL


CITY           SKY/WX    TMP DP  RH WIND       PRES   REMARKS
FULTON         MOSUNNY   47  32  56 NW10      29.80R
SYRACUSE       MOSUNNY   46  33  60 W8        29.78S
ROME           SUNNY     45  31  58 W6        29.78S
ELMIRA         CLOUDY    44  30  57 CALM      29.78S
BINGHAMTON     PTSUNNY   44  28  53 NW6       29.73S
MONTICELLO     MOSUNNY   48  28  46 CALM      29.72S
$$

NYZ026>034-041>043-261500-
NORTH


CITY           SKY/WX    TMP DP  RH WIND       PRES   REMARKS
WATERTOWN      CLOUDY    46  32  58 N5        29.79S
FORT DRUM      NOT AVBL
MASSENA        PTSUNNY   45  32  60 VRB7      29.78S
SARANAC LAKE   PTSUNNY   42  29  59 W8        29.68F
PLATTSBURGH    MOSUNNY   46  33  60 NE10      29.73S
$$

NYZ001>004-010>016-019>021-261500-
WEST


CITY           SKY/WX    TMP DP  RH WIND       PRES   REMARKS
NIAGARA FALLS  PTSUNNY   43  33  68 NW3       29.84S
BUFFALO        PTSUNNY   43  31  62 NE8       29.84S
DUNKIRK        MOSUNNY   41  31  67 VRB3      29.85S
JAMESTOWN      CLOUDY    39  25  56 N7        29.81S WCI  34
WELLSVILLE     CLOUDY    40  26  57 N9        29.78S WCI  34
ROCHESTER      PTSUNNY   44  31  60 NE9       29.83S
PENN YAN       CLOUDY    42  32  67 NW7       29.80S
$$

             KEY
       WCI = WIND CHILL INDEX
       VSB = VISIBILITY
       HX  = HEAT INDEX
$$



USA.gov is the U.S. government's official web portal to all federal, state and local government web resources and services.